EST,Max TemperatureF,Mean TemperatureF,Min TemperatureF,Max Dew PointF,MeanDew PointF,Min DewpointF,Max Humidity, Mean Humidity, Min Humidity, Max Sea Level PressureIn, Mean Sea Level PressureIn, Min Sea Level PressureIn, Max VisibilityMiles, Mean VisibilityMiles, Min VisibilityMiles, Max Wind SpeedMPH, Mean Wind SpeedMPH, Max Gust SpeedMPH,PrecipitationIn, CloudCover, Events, WindDirDegrees
2012-12-1,24,22,21,25,14,1,100,70,39,30.66,30.59,30.51,10,8,2,12,8,,0.00,8,,10
2012-12-2,44,34,24,45,32,19,100,92,74,30.50,30.24,29.98,9,3,0,12,4,17,0.15,8,,239
2012-12-3,53,38,24,45,35,19,100,81,50,30.31,30.12,29.97,10,8,0,16,6,23,0.00,2,,247
2012-12-4,51,37,23,50,36,18,100,89,74,30.31,30.19,29.94,10,6,0,7,2,,0.00,7,,210
2012-12-5,53,40,28,52,33,14,94,65,41,30.08,29.92,29.78,10,9,5,21,9,31,0.00,6,,274
2012-12-6,39,28,17,21,15,9,86,64,33,30.30,30.23,30.08,10,10,10,9,4,,0.00,0,,282
2012-12-7,39,28,17,37,21,10,100,76,52,30.27,30.16,30.03,10,9,3,9,3,,0.02,4,,207
2012-12-8,39,36,33,39,36,34,100,100,100,30.02,29.94,29.86,9,3,0,10,4,,0.21,8,,317
2012-12-9,46,36,26,46,37,25,100,99,81,30.31,30.17,29.91,10,9,3,12,4,16,0.00,2,,295
2012-12-10,42,38,33,39,36,34,100,100,100,30.20,29.74,29.47,10,3,0,10,4,,0.36,8,,10
2012-12-11,42,30,19,43,36,18,100,98,80,30.11,29.82,29.52,10,9,3,17,5,25,0.01,5,,269
2012-12-12,39,26,14,37,22,9,100,91,60,30.39,30.29,30.11,10,10,2,8,1,,0.00,0,,211
2012-12-13,42,28,15,41,23,10,100,89,65,30.45,30.37,30.24,10,10,10,7,2,,0.00,0,,229
2012-12-14,44,30,17,45,31,16,100,93,60,30.24,30.11,30.01,10,10,9,18,5,23,0.00,1,,244
2012-12-15,37,28,19,37,21,0,100,76,30,30.37,30.28,30.13,10,10,10,12,7,18,0.00,0,,18
2012-12-16,21,20,19,21,14,3,100,80,46,30.37,30.27,30.17,10,7,1,12,9,,0.00,8,,24
2012-12-17,32,26,21,32,23,9,100,85,50,30.16,30.03,29.89,10,3,2,15,11,20,0.03,8,,18
2012-12-18,46,39,32,46,37,28,100,97,81,29.88,29.54,29.38,7,3,1,16,11,21,1.86,8,,20
2012-12-19,39,37,35,39,36,34,100,98,87,30.01,29.66,29.39,10,9,2,18,10,29,0.21,8,,346
2012-12-20,37,32,28,37,34,28,100,98,75,30.21,30.13,30.02,10,10,2,9,3,,0.00,8,,22
2012-12-21,51,42,32,52,41,28,100,99,81,30.05,29.46,29.08,10,7,2,24,10,41,1.02,7,,120
2012-12-22,39,32,26,39,32,16,100,95,64,29.54,29.31,29.15,10,10,7,22,11,33,0.00,6,,248
2012-12-23,37,29,21,37,26,12,100,88,55,29.79,29.71,29.55,10,10,10,23,12,33,0.00,1,,260
2012-12-24,35,28,21,34,26,12,100,90,59,30.04,29.97,29.79,10,10,10,15,6,22,0.00,2,,266
2012-12-25,30,21,12,30,19,-4,100,85,41,30.19,30.06,30.00,10,9,2,10,3,,0.00,5,,345
2012-12-26,30,19,8,30,14,-13,100,73,34,30.31,30.23,30.03,10,10,1,16,5,23,0.00,2,,38
2012-12-27,30,27,24,30,22,12,100,81,51,30.01,29.59,29.39,10,2,0,26,20,34,0.02,8,,17
2012-12-28,33,27,21,34,22,9,100,78,54,29.96,29.81,29.57,10,10,6,16,9,23,0.01,3,,288
2012-12-29,26,18,10,27,15,-8,100,79,41,29.96,29.79,29.44,10,7,0,20,5,28,0.00,5,,7
2012-12-30,26,20,15,27,17,9,100,80,68,29.85,29.60,29.42,10,6,1,24,15,36,0.03,4,,299
2012-12-31,33,22,10,30,19,7,100,79,59,29.91,29.84,29.70,10,10,5,18,9,36,0.03,2,,247